Location: Sawmill Trailhead
(33.5800°N, 116.4497°W)
Time: 08:51:51
(UTC-08:00)

Uosat F - Visible Passes

Search period start: 08 February 2016 00:00
Search period end: 18 February 2016 00:00
Orbit: 751 x 761 km, 98.8° (Epoch: 07 February)

Date Brightness Start Highest point End Pass type
(mag) Time Alt. Az. Time Alt. Az. Time Alt. Az.
08 Feb 14.2 04:04:05 10° ENE 04:05:57 12° E 04:07:49 10° ESE visible
08 Feb 11.1 05:40:03 10° N 05:45:02 61° WNW 05:50:00 10° SSW visible
09 Feb 12.0 05:00:45 10° NNE 05:05:40 51° E 05:10:34 10° S visible
09 Feb 14.3 17:50:39 10° SW 17:53:40 16° W 17:56:42 10° WNW visible
10 Feb 13.7 04:22:27 10° NE 04:26:06 20° E 04:29:43 10° SE visible
10 Feb 11.6 06:00:16 10° N 06:04:55 38° WNW 06:09:34 10° SW visible
11 Feb 11.1 05:20:35 10° NNE 05:25:40 83° ESE 05:30:43 10° SSW visible
12 Feb 12.9 04:41:42 10° NE 04:46:12 31° E 04:50:40 10° SSE visible
13 Feb 14.3 04:04:40 10° ENE 04:06:31 12° E 04:08:21 10° ESE visible
13 Feb 11.1 05:40:37 10° N 05:45:36 62° WNW 05:50:35 10° SSW visible
14 Feb 12.0 05:01:19 10° NNE 05:06:14 51° E 05:11:08 10° S visible
14 Feb 14.3 17:51:12 10° SW 17:54:14 16° W 17:57:17 10° WNW visible
15 Feb 13.7 04:23:02 10° NE 04:26:40 20° E 04:30:17 10° SE visible
15 Feb 11.6 06:00:50 10° N 06:05:29 38° WNW 06:10:08 10° SW visible
16 Feb 11.2 05:21:09 10° NNE 05:26:14 83° ESE 05:31:17 10° SSW visible
17 Feb 12.9 04:42:17 10° NE 04:46:46 31° E 04:51:13 10° SSE visible
